Location: Central High School (historical)
(32.2813°N, 83.4324°W)
Time: 02:36:08
(UTC+00:00)

Daily predictions for brighter satellites

Satellite Brightness Start Highest point End
(mag) Time Altitude Azimuth Time Altitude Azimuth Time Altitude Azimuth
ERS-2 4.5 00:00:51 10° NNW 00:03:46 23° WNW 00:06:42 10° SW
Orbus 7S 4.1 00:01:45 10° WSW 00:04:44 30° S 00:05:11 28° S
Cosmos 923 Rocket 3.9 00:01:35 10° S 00:06:44 70° ESE 00:09:09 32° NNE
H-2A R/B 3.6 00:02:49 10° SE 00:10:50 20° NNE 00:12:31 10° N
Cosmos 1461 4.0 00:06:05 10° S 00:09:10 31° SE 00:09:10 31° SE
CREW DRAGON DEMO-1 DEB 4.0 00:10:53 10° NW 00:12:54 38° WNW 00:12:54 38° WNW
Cosmos 44 4.0 00:10:53 10° NW 00:16:11 60° WSW 00:21:29 10° SSE
YAOGAN 1 4.3 00:14:08 10° SSE 00:22:49 - N 00:15:25 19° SSE
NOSS 3-2 (A) 3.3 00:18:25 10° SW 00:23:50 75° WNW 00:26:19 36° NNE
Cosmos 158 Rocket 3.9 00:19:55 10° SSW 00:24:57 78° WNW 00:26:32 44° N
Cosmos 2228 Rocket 3.7 00:25:40 10° SSW 00:30:08 57° W 00:32:19 28° NNW
BREEZE-M DEB (TANK) 3.8 00:28:39 10° W 00:31:24 26° NW 00:31:24 26° NW
Cosmos 2239 Rocket 4.3 00:27:21 10° N 00:33:32 74° E 00:39:43 10° S
Cosmos 1680 Rocket 3.4 00:29:24 10° SSW 00:34:38 84° WNW 00:35:23 66° N
Cosmos 1812 3.9 00:31:57 10° SSW 00:35:34 41° W 00:35:56 40° WNW
Gblst 52 Del rocket 4.2 00:32:11 10° SW 00:38:43 78° SE 00:39:03 75° E
USA 238 DEB 3.8 00:34:47 10° SW 00:41:14 67° WNW 00:43:44 40° N
USA 238 3.8 00:34:52 10° SW 00:41:20 68° WNW 00:43:47 40° N
Cosmos 2112 Rocket 4.4 00:49:09 10° SSW 00:53:57 62° W 00:53:57 62° W
Okean-O 4.2 00:52:33 10° SSW 00:56:33 34° W 01:00:36 10° NNW
USA 267 4.4 01:09:12 30° NNW 01:09:12 30° NNW 01:12:34 10° NNW
USA 281 3.8 01:08:20 10° S 01:14:40 52° WSW 01:21:02 10° NNW
Cosmos 2369 Rocket 4.1 01:32:22 10° NW 01:36:57 26° WSW 01:37:02 26° WSW
CENTAUR R/B 4.3 01:44:12 10° WSW 01:47:09 24° W 01:47:09 24° W
Milstar 3 Cent rocket 3.8 08:57:58 42° ESE 08:57:58 42° ESE 09:04:56 10° E
Lacrosse 5 4.4 09:29:47 13° NE 09:29:47 13° NE 09:30:23 10° NE
CENTAUR R/B 3.9 09:23:19 37° N 09:26:23 51° NE 09:34:57 10° SE
Atlas Centaur 2 2.9 09:34:28 58° SE 09:34:28 58° SE 09:39:36 10° E
ATLAS 2AS CENTAUR R/B 2.9 09:38:11 84° NW 09:38:11 84° NW 09:46:07 10° NNE
NOSS 3-2 (A) 4.0 09:51:01 63° NW 09:52:29 79° WSW 10:01:11 10° SSE
Lacrosse 4 Rocket 3.1 10:03:37 26° NNE 10:04:50 30° ENE 10:08:44 10° ESE
FENGYUN 3A 3.5 10:03:00 10° NNE 10:08:26 88° WNW 10:13:48 10° SSW
USA 238 DEB 3.8 10:08:23 53° WNW 10:10:06 68° WSW 10:17:37 10° SSE
USA 238 3.8 10:08:27 53° WNW 10:10:12 69° WSW 10:17:43 10° SSE
CZ-4B R/B 3.2 10:10:13 10° SE 10:12:25 29° E 10:12:25 29° E
Cosmos 1709 Rocket 3.9 10:10:01 10° SSW 10:16:17 63° W 10:22:37 10° N
Meteor 2-3 Rocket 3.6 10:10:49 10° S 10:16:31 85° W 10:22:18 10° N
ADEOS Rocket 4.0 10:12:06 10° SSW 10:15:29 30° SW 10:15:29 30° SW
Cosmos 1461 3.0 10:18:00 74° NNE 10:18:19 79° ENE 10:22:44 10° SSE
Cosmos 1603 3.5 10:18:19 51° NNW 10:19:46 80° WSW 10:25:24 10° SSE
Delta 2 Rocket 4.3 10:20:46 43° SSW 10:20:47 43° SSW 10:25:14 10° SE
Cosmos 2181 Rocket 4.3 10:16:38 10° N 10:22:46 66° E 10:28:49 10° SSE
Cosmos 1943 3.1 10:23:32 38° NNW 10:25:50 81° WSW 10:31:30 10° SSE
CZ-4C R/B 2.0 10:26:54 50° NW 10:26:54 50° NW 10:31:46 10° NNE
deb Chang Zheng 4 3.5 10:22:51 10° NNE 10:27:13 89° ESE 10:31:33 10° SSW
ATLAS 2A CENTAUR R/B 4.4 10:23:01 10° SSW 10:28:08 35° SE 10:45:44 10° E
BREEZE M DEB (TANK) 3.9 10:11:53 10° SW 10:30:21 87° NW 10:34:39 10° NE
H-2A R/B 4.2 10:26:50 10° SSW 10:27:30 14° SSW 10:27:30 14° SSW
Cosmos 990 Rocket 3.8 10:25:26 10° SSW 10:30:38 77° WNW 10:35:54 10° NNE
Meteor 1-31 Rocket 4.3 10:34:17 23° SSW 10:34:17 23° SSW 10:35:46 10° SSW
GPS 2-04 Rocket1 3.0 10:33:14 50° N 10:33:14 50° N 10:37:00 10° ENE
deb Centaur AC-2 4.4 10:32:47 44° WSW 10:34:22 69° S 10:39:01 10° E
ERS-2 2.1 10:32:45 10° SSE 10:36:22 80° ENE 10:37:36 39° N
OAO 3 Rocket 4.1 10:37:37 30° SW 10:38:18 32° SSW 10:42:28 10° SE
Cosmos 923 Rocket 4.2 10:35:15 13° N 10:40:02 72° ENE 10:45:20 10° SSE
Cosmos 1933 3.4 10:41:12 52° W 10:41:24 53° W 10:45:22 10° S
SKYMED 2 4.2 10:38:06 10° SSE 10:42:19 54° ENE 10:46:34 10° N
Cosmos 1782 3.2 10:39:24 10° N 10:43:24 65° E 10:47:23 10° SSE
Cosmos 1515 Rocket 4.3 10:40:47 10° N 10:45:10 54° E 10:49:31 10° SSE
Cosmos 2074 Rocket 4.0 10:40:14 10° S 10:46:26 83° E 10:52:39 10° N
Cosmos 1151 Rocket 2.9 10:44:42 26° NNW 10:46:58 62° W 10:51:12 10° S
ATLAS 3B R/B 3.8 10:40:30 10° NNW 10:47:08 43° NE 10:53:57 10° SE
METEOR-M 4.3 10:42:35 10° N 10:47:40 46° WNW 10:52:43 10° SW
ASTRO E2 3.5 10:49:23 31° SW 10:50:28 38° SSW 10:54:10 10° SE
SJ-12 3.8 10:47:56 10° N 10:51:56 59° WNW 10:55:54 10° SSW
RESURS DK-1 2.7 10:51:31 37° W 10:52:02 39° WNW 10:55:57 10° N
Cosmos 158 Rocket 3.8 10:50:04 13° NNW 10:54:27 83° WSW 10:59:30 10° SSE
CZ-2C R/B 3.5 10:52:41 10° S 10:54:42 15° SSE 10:56:42 10° ESE
Meteor PRIRODA 3.5 10:54:51 10° N 10:58:35 73° WNW 11:02:16 10° SSW
Cosmos 1500 Rocket 3.4 10:56:43 10° S 11:01:01 88° W 11:05:21 10° N
ATLAS CENTAUR R/B 3.4 10:57:57 10° N 11:01:01 22° NE 11:04:11 10° ESE
Cosmos 1844 Rocket 2.7 10:55:34 10° SW 11:01:05 56° WNW 11:06:39 10° N
Centaur AC-116 3.7 11:00:41 19° WSW 11:02:55 31° SSW 11:05:06 10° SE
Cosmos 2184 Rocket 3.9 10:57:54 10° SSW 11:04:09 73° W 11:10:31 10° N
H-2A R/B 3.0 11:00:19 10° NNE 11:04:12 72° ESE 11:08:01 10° S
Meteor 1-4 Rocket 2.9 11:03:45 30° WNW 11:04:44 37° W 11:07:56 10° SSW
CRYOSAT 2 4.5 11:00:42 10° S 11:05:25 51° W 11:10:09 10° NNW
Cosmos 1328 Rocket 4.0 11:04:12 13° NNW 11:07:48 40° W 11:11:56 10° SSW
Cosmos 1680 Rocket 3.5 11:02:33 10° NNW 11:07:53 83° WSW 11:13:10 10° SSE
Lacrosse 5 3.7 11:09:02 13° NNW 11:09:02 13° NNW 11:11:22 10° N
OAO 3 Copernicus 4.3 11:06:59 17° WSW 11:10:55 89° NNW 11:16:01 10° ENE
Cosmos 372 Rocket 4.1 11:08:23 10° S 11:13:28 77° ESE 11:18:33 10° NNE
COSMOS 2455 2.8 11:07:40 10° SSW 11:13:42 87° WNW 11:19:45 10° NNE
EO 1 Delta rocket 4.3 11:09:12 10° SSE 11:14:38 72° E 11:19:20 10° N
Cosmos 1844 3.8 11:10:20 10° SW 11:15:42 52° WNW 11:21:08 10° N
OAO 2 Rocket 3.4 11:12:56 19° WNW 11:16:28 67° N 11:21:35 10° E
CENTAUR R/B 3.8 11:10:33 15° NW 11:17:03 37° WSW 11:24:56 10° S
Okean O Rocket 4.0 11:13:30 10° NE 11:17:20 28° E 11:21:09 10° SSE
Sich 1 4.0 11:17:00 10° S 11:21:17 52° E 11:25:36 10° NNE
BREEZE-M (TANK) 3.8 11:06:35 10° SW 11:21:41 84° NW 11:25:23 10° NE
Cosmos 1689 Rocket 2.1 11:19:58 10° S 11:22:44 50° W 11:25:33 10° NNW
Atlas Centaur 2 2.3 11:17:04 14° W 11:22:52 74° S 11:27:59 10° E
USA 234 3.2 11:18:03 10° NE 11:24:35 77° NW 11:31:06 10° SW
Cosmos 1743 Rocket 3.9 11:20:52 10° SSW 11:25:04 42° W 11:29:20 10° N
Aureole 2 Rocket 2.5 11:24:36 10° SW 11:26:51 28° WNW 11:29:06 10° N
CZ-4B DEB 4.3 11:22:03 10° NNE 11:27:32 82° ESE 11:33:01 10° S
Cosmos 2112 Rocket 4.1 11:22:26 10° NNW 11:27:43 62° WSW 11:32:57 10° S
SJ-7 4.4 11:25:35 10° N 11:29:38 66° WNW 11:33:44 10° SSW
ATLAS 2AS CENTAUR R/B 4.2 11:25:45 12° W 11:30:12 19° NW 11:35:32 10° N
COSMO-SKYMED 1 3.2 11:26:22 10° SSW 11:30:21 36° W 11:34:22 10° NNW
Meteor 2-6 Rocket 4.1 11:25:07 10° N 11:30:31 77° W 11:36:01 10° S
ATLAS 5 CENTAUR R/B 1.7 11:27:38 10° SSW 11:31:31 68° ESE 11:35:40 10° NE
H-2A R/B 2.3 11:28:43 10° NNE 11:32:33 83° ESE 11:36:22 10° S
PAYLOAD B 4.5 11:29:04 10° NNE 11:34:34 76° ESE 11:40:03 10° S
Milstar 3 Cent rocket 4.1 11:26:52 10° W 11:34:39 67° S 11:51:56 10° ESE
SEDSat Delta rocket 4.2 11:30:29 10° SW 11:34:59 42° SSE 11:39:02 10° E
H-II Stage 2 4.2 11:34:13 10° SW 11:35:21 13° S 11:36:39 10° SSE
CZ-2C R/B 4.4 11:32:10 10° SE 11:37:02 33° ENE 11:41:49 10° N
Gbstr 26 Del rocket 3.8 11:34:22 10° NNW 11:37:56 39° NE 11:41:53 10° ESE
APEX 4.4 11:34:26 10° SW 11:39:55 58° WNW 11:46:32 10° NNE
Lacrosse 4 Rocket 3.0 11:40:10 10° WNW 11:43:15 19° WSW 11:46:23 10° SSW
Envisat 3.0 11:38:41 10° N 11:43:43 66° WNW 11:48:43 10° SSW
Cosmos 1805 Rocket 3.7 11:39:51 10° SSW 11:44:11 56° W 11:48:33 10° N
CZ-4B R/B 4.4 11:42:18 10° NNW 11:45:23 19° WNW 11:48:25 10° WSW
Cosmos 1862 4.3 11:42:35 10° SW 11:45:58 25° WNW 11:49:22 10° NNW
MOS 1 Rocket 3.4 11:44:15 10° S 11:48:53 66° W 11:53:50 10° NNW
YAOGAN 6 2.8 11:46:02 10° N 11:49:22 44° WNW 11:52:40 10° SSW
Cosmos 1666 Rocket 3.8 11:47:04 10° S 11:51:21 74° E 11:55:40 10° N
Nadezhda 3 Rocket 4.0 11:46:56 10° NNW 11:53:09 66° W 11:59:16 10° S
